Temp
-1 -1 -1 -1 -1 -2 -2 -3 -3 -3 -4 -4 -5 -5 -5 -5 -6 -6 -7 -8 -7 -7 -8 -8 -8 -8 -9 -9 -9 -9 -10 -10 -10 -10 -10 -10 -10 -10 -10 -10 -10 -11 -11 -10 -10 -10 -10 -10 -11 -11 -11 -11 -11 -11 -11 -12 -12 -12 -12 -12 -12 -11 -11
-1 -1 -1 -2 -2 -2 -2 -3 -3 -3 -4 -5 -5 -5 -5 -5 -6 -7 -7 -8 -8 -8 -8 -8 -9 -9 -9 -9 -9 -9 -10 -10 -10 -10 -10 -10 -10 -10 -10 -10 -10 -11 -11 -11 -11 -10 -10 -10 -10 -11 -11 -11 -11 -11 -11 -12 -12 -12 -12 -12 -12 -11 -11
-1 -1 -2 -2 -2 -2 -2 -3 -3 -4 -4 -5 -6 -6 -6 -6 -6 -7 -8 -8 -8 -8 -8 -9 -9 -9 -9 -9 -10 -10 -10 -10 -10 -10 -10 -10 -10 -10 -10 -10 -10 -11 -11 -11 -11 -10 -10 -10 -10 -11 -11 -11 -11 -11 -11 -12 -12 -12 -12 -11 -11 -11 -11
-2 -2 -2 -2 -2 -2 -3 -3 -3 -4 -5 -5 -6 -6 -6 -6 -6 -7 -8 -8 -8 -8 -9 -9 -9 -9 -9 -10 -10 -10 -10 -10 -10 -10 -10 -10 -10 -10 -10 -10 -10 -11 -11 -11 -11 -11 -11 -11 -11 -11 -11 -11 -11 -11 -12 -12 -12 -12 -12 -11 -11 -11 -11
-2 -3 -2 -2 -3 -3 -3 -3 -3 -4 -5 -5 -6 -6 -6 -6 -7 -7 -8 -8 -8 -8 -9 -9 -9 -9 -9 -10 -10 -10 -10 -10 -10 -10 -10 -10 -10 -10 -10 -11 -11 -11 -11 -11 -11 -11 -11 -11 -11 -11 -11 -11 -11 -12 -12 -12 -12 -12 -11 -11 -11 -11 -11
-3 -3 -3 -3 -3 -3 -3 -3 -4 -4 -5 -5 -6 -6 -6 -7 -7 -7 -8 -8 -8 -8 -8 -9 -9 -9 -10 -10 -10 -10 -10 -10 -10 -10 -10 -10 -10 -10 -11 -11 -11 -11 -11 -11 -11 -11 -11 -11 -11 -11 -11 -11 -11 -12 -12 -12 -12 -11 -11 -11 -11 -11 -12
-3 -3 -3 -3 -3 -3 -3 -4 -4 -5 -5 -6 -6 -6 -7 -7 -7 -8 -8 -8 -8 -8 -8 -9 -9 -9 -10 -10 -9 -9 -10 -10 -10 -10 -10 -10 -10 -11 -11 -11 -11 -11 -11 -11 -11 -11 -11 -11 -11 -11 -11 -11 -11 -12 -12 -12 -11 -11 -11 -11 -12 -12 -13
-3 -3 -4 -4 -4 -4 -4 -4 -4 -5 -5 -6 -6 -6 -7 -7 -8 -8 -9 -9 -9 -9 -9 -9 -9 -9 -9 -9 -9 -9 -9 -10 -10 -10 -10 -10 -10 -11 -11 -11 -11 -11 -11 -11 -11 -11 -11 -11 -11 -11 -11 -11 -11 -11 -11 -11 -11 -11 -12 -12 -13 -13 -13
-3 -4 -4 -4 -4 -4 -4 -5 -5 -5 -5 -6 -6 -7 -7 -8 -8 -8 -9 -9 -9 -9 -9 -9 -9 -9 -9 -9 -9 -9 -9 -10 -10 -10 -10 -10 -11 -11 -11 -11 -12 -11 -11 -11 -11 -11 -11 -11 -11 -11 -10 -11 -11 -11 -11 -12 -12 -12 -13 -13 -13 -13 -13
-3 -4 -5 -5 -5 -5 -5 -5 -5 -5 -6 -6 -6 -7 -7 -8 -8 -8 -9 -9 -9 -9 -10 -9 -9 -9 -9 -9 -9 -9 -10 -10 -10 -10 -10 -10 -10 -11 -11 -11 -11 -11 -11 -11 -11 -11 -11 -11 -10 -10 -11 -11 -11 -12 -12 -12 -13 -13 -13 -13 -13 -13 -13
-4 -4 -5 -5 -5 -5 -6 -6 -6 -6 -6 -6 -6 -7 -7 -8 -8 -9 -9 -9 -9 -9 -10 -10 -10 -10 -10 -10 -10 -10 -10 -10 -10 -10 -10 -10 -10 -10 -10 -11 -11 -11 -11 -11 -11 -11 -11 -11 -11 -11 -11 -12 -12 -12 -13 -13 -13 -14 -14 -13 -13 -13 -13
-4 -5 -5 -5 -5 -6 -6 -6 -6 -6 -6 -6 -6 -7 -7 -8 -8 -9 -9 -9 -9 -9 -10 -10 -10 -10 -10 -10 -10 -10 -10 -10 -10 -10 -10 -10 -10 -10 -9 -9 -10 -10 -10 -10 -11 -11 -11 -11 -11 -12 -12 -12 -12 -13 -13 -13 -14 -14 -14 -13 -13 -13 -13
-4 -5 -5 -5 -6 -6 -6 -6 -6 -6 -6 -6 -6 -6 -7 -8 -8 -9 -9 -9 -9 -9 -10 -10 -10 -10 -10 -10 -10 -10 -10 -10 -10 -10 -10 -10 -10 -9 -9 -9 -10 -10 -10 -10 -11 -11 -12 -12 -12 -12 -12 -12 -13 -13 -13 -13 -13 -13 -13 -13 -13 -13 -14
-4 -5 -5 -5 -6 -6 -6 -6 -6 -6 -6 -6 -5 -5 -6 -8 -8 -9 -9 -9 -9 -9 -10 -10 -10 -10 -10 -10 -10 -10 -10 -10 -10 -10 -10 -10 -10 -10 -10 -10 -11 -11 -11 -11 -12 -12 -12 -12 -12 -13 -13 -12 -13 -13 -13 -13 -13 -13 -14 -14 -14 -15 -15
-4 -5 -5 -5 -6 -6 -6 -6 -6 -6 -6 -6 -5 -5 -6 -7 -8 -9 -9 -9 -9 -9 -10 -10 -10 -10 -10 -10 -10 -10 -10 -10 -10 -11 -11 -11 -11 -11 -11 -11 -11 -12 -12 -12 -12 -12 -13 -12 -12 -12 -12 -12 -12 -13 -13 -14 -14 -15 -15 -16 -16 -16 -16
-4 -5 -5 -5 -6 -6 -6 -6 -6 -6 -6 -5 -5 -5 -5 -7 -8 -9 -9 -9 -9 -10 -10 -10 -10 -10 -10 -10 -10 -10 -10 -10 -10 -11 -11 -11 -11 -11 -11 -12 -12 -12 -12 -12 -12 -12 -12 -12 -12 -12 -12 -12 -13 -13 -14 -15 -16 -16 -17 -17 -17 -17 -17
-4 -4 -5 -6 -6 -6 -6 -6 -6 -6 -6 -6 -5 -5 -5 -7 -8 -9 -9 -9 -9 -10 -10 -10 -9 -10 -10 -10 -10 -10 -10 -10 -10 -11 -11 -11 -11 -11 -12 -12 -12 -12 -12 -12 -12 -12 -12 -12 -12 -13 -13 -14 -14 -15 -16 -17 -17 -17 -18 -18 -18 -18 -18
-4 -4 -5 -6 -6 -6 -6 -6 -6 -6 -6 -6 -5 -5 -5 -7 -8 -8 -9 -9 -10 -10 -10 -10 -10 -10 -10 -10 -9 -10 -10 -10 -10 -10 -11 -11 -11 -11 -12 -12 -12 -12 -12 -12 -12 -13 -13 -13 -14 -14 -15 -15 -15 -16 -17 -18 -18 -19 -20 -20 -20 -19 -19
-4 -5 -5 -6 -6 -6 -6 -7 -7 -7 -6 -6 -5 -5 -6 -6 -8 -9 -9 -9 -10 -10 -10 -10 -10 -10 -10 -9 -9 -10 -10 -10 -10 -10 -11 -11 -11 -12 -12 -12 -12 -12 -13 -13 -13 -14 -14 -15 -15 -15 -16 -16 -16 -17 -18 -19 -19 -20 -21 -21 -21 -20 -19
-4 -5 -5 -6 -6 -6 -6 -7 -7 -7 -6 -6 -6 -5 -6 -6 -7 -8 -9 -9 -10 -10 -10 -10 -10 -10 -10 -9 -9 -10 -10 -9 -10 -10 -10 -11 -11 -12 -12 -12 -13 -13 -14 -14 -15 -15 -15 -15 -15 -16 -16 -17 -17 -18 -18 -19 -20 -20 -22 -22 -21 -20 -20
-5 -5 -6 -6 -6 -7 -7 -7 -7 -7 -7 -6 -6 -5 -6 -6 -7 -8 -8 -9 -9 -10 -10 -10 -10 -10 -10 -10 -10 -10 -9 -9 -9 -10 -10 -11 -11 -11 -12 -13 -13 -14 -15 -15 -15 -15 -15 -15 -15 -16 -17 -17 -18 -19 -19 -20 -20 -20 -21 -22 -22 -21 -20
-5 -6 -6 -7 -7 -7 -7 -7 -7 -7 -7 -7 -6 -6 -5 -6 -7 -7 -8 -9 -9 -10 -10 -10 -10 -10 -9 -9 -9 -9 -9 -9 -9 -10 -11 -11 -11 -12 -13 -13 -14 -14 -15 -15 -16 -16 -16 -16 -16 -17 -18 -19 -20 -20 -20 -20 -20 -20 -20 -21 -22 -21 -21
-6 -6 -7 -7 -7 -7 -7 -7 -7 -7 -7 -7 -6 -6 -5 -6 -7 -7 -7 -8 -9 -9 -9 -9 -9 -9 -9 -9 -9 -9 -9 -10 -10 -11 -11 -11 -12 -13 -13 -14 -14 -15 -15 -16 -16 -16 -16 -17 -18 -19 -20 -20 -21 -21 -21 -21 -20 -20 -20 -20 -20 -20 -20
-6 -7 -7 -8 -8 -8 -8 -8 -8 -8 -7 -7 -7 -6 -6 -6 -6 -7 -7 -7 -8 -8 -9 -9 -8 -9 -9 -9 -9 -9 -9 -10 -11 -11 -12 -12 -13 -13 -14 -14 -15 -16 -16 -17 -17 -17 -18 -18 -19 -20 -20 -21 -21 -21 -21 -20 -20 -19 -19 -20 -20 -20 -20
-7 -7 -8 -8 -8 -8 -8 -8 -8 -8 -8 -8 -7 -7 -6 -6 -6 -7 -7 -7 -8 -8 -8 -8 -8 -9 -9 -9 -9 -10 -10 -11 -12 -12 -13 -13 -14 -14 -14 -15 -16 -16 -17 -17 -17 -19 -19 -19 -19 -20 -20 -20 -20 -20 -20 -20 -20 -19 -19 -19 -20 -20 -19
-7 -7 -8 -8 -8 -8 -8 -9 -9 -8 -8 -8 -8 -7 -7 -6 -6 -6 -7 -7 -7 -7 -8 -8 -8 -9 -9 -9 -10 -11 -11 -12 -13 -14 -14 -14 -15 -15 -16 -16 -17 -17 -17 -17 -18 -19 -19 -19 -19 -18 -18 -18 -19 -20 -20 -21 -21 -20 -19 -20 -20 -20 -19
-7 -7 -8 -8 -8 -8 -8 -9 -9 -9 -9 -8 -8 -8 -7 -7 -6 -6 -7 -7 -8 -8 -8 -9 -9 -10 -10 -11 -11 -12 -13 -13 -14 -15 -15 -15 -15 -16 -17 -17 -17 -17 -17 -17 -18 -18 -18 -18 -18 -17 -17 -18 -19 -20 -20 -21 -21 -21 -21 -20 -20 -20 -19
-7 -7 -7 -8 -8 -8 -9 -9 -9 -9 -9 -8 -8 -8 -8 -8 -7 -7 -7 -8 -9 -9 -9 -10 -10 -11 -11 -12 -13 -13 -14 -14 -15 -15 -16 -16 -16 -17 -17 -18 -18 -17 -17 -17 -17 -17 -17 -17 -17 -17 -18 -19 -20 -20 -20 -21 -21 -22 -22 -21 -21 -20 -20
-7 -7 -7 -7 -8 -8 -9 -9 -9 -8 -8 -8 -8 -8 -8 -8 -8 -7 -8 -9 -9 -10 -10 -11 -12 -12 -13 -14 -14 -15 -16 -16 -16 -17 -17 -17 -17 -18 -18 -18 -17 -16 -16 -16 -16 -16 -17 -18 -18 -18 -19 -21 -21 -20 -20 -21 -22 -22 -22 -22 -21 -20 -20
-6 -6 -6 -7 -7 -7 -8 -8 -8 -8 -8 -8 -8 -8 -8 -8 -8 -8 -8 -9 -9 -10 -11 -13 -14 -14 -15 -15 -15 -16 -17 -17 -17 -17 -17 -18 -18 -18 -18 -17 -16 -16 -16 -16 -16 -16 -18 -18 -18 -18 -20 -22 -21 -20 -20 -21 -22 -22 -22 -22 -22 -21 -20
-6 -6 -6 -6 -7 -7 -7 -7 -7 -8 -8 -8 -8 -8 -8 -8 -8 -8 -9 -9 -10 -11 -13 -14 -15 -16 -16 -16 -16 -16 -17 -17 -17 -17 -17 -18 -19 -18 -18 -17 -16 -16 -16 -16 -16 -17 -17 -17 -18 -19 -21 -22 -22 -21 -20 -20 -21 -22 -22 -22 -22 -21 -20
-6 -6 -6 -6 -6 -7 -7 -8 -8 -8 -8 -8 -8 -8 -8 -8 -8 -8 -9 -9 -10 -12 -14 -14 -15 -17 -17 -17 -17 -17 -16 -17 -17 -17 -18 -18 -18 -18 -18 -17 -16 -16 -16 -15 -15 -16 -17 -17 -18 -20 -21 -22 -22 -21 -21 -21 -21 -22 -23 -22 -22 -21 -21
-8 -7 -7 -6 -6 -6 -7 -7 -8 -8 -8 -8 -8 -7 -7 -8 -8 -8 -9 -10 -11 -13 -15 -15 -15 -17 -17 -17 -17 -16 -16 -17 -17 -17 -18 -18 -17 -17 -17 -17 -16 -16 -16 -15 -16 -17 -16 -16 -17 -19 -20 -21 -21 -21 -21 -22 -22 -23 -23 -23 -23 -22 -21
-9 -8 -8 -7 -7 -6 -7 -7 -7 -8 -7 -7 -7 -7 -7 -7 -8 -8 -9 -10 -12 -13 -15 -15 -16 -17 -17 -17 -16 -16 -16 -16 -17 -17 -18 -18 -17 -17 -17 -16 -16 -16 -16 -16 -16 -16 -16 -16 -17 -19 -20 -20 -20 -20 -21 -22 -22 -23 -23 -23 -23 -23 -22
-10 -9 -9 -8 -7 -7 -7 -7 -7 -7 -7 -7 -7 -7 -7 -7 -8 -9 -10 -11 -12 -13 -14 -15 -16 -16 -16 -16 -16 -16 -16 -16 -17 -17 -17 -17 -17 -17 -17 -17 -16 -16 -16 -16 -16 -16 -16 -16 -17 -18 -20 -21 -21 -21 -21 -22 -23 -23 -23 -23 -23 -23 -23
-11 -10 -9 -9 -8 -7 -7 -7 -7 -7 -7 -7 -7 -7 -7 -8 -8 -9 -11 -13 -14 -14 -14 -14 -14 -14 -15 -15 -15 -15 -15 -15 -16 -17 -17 -17 -16 -16 -16 -16 -16 -16 -16 -16 -16 -16 -16 -16 -17 -18 -19 -20 -21 -21 -22 -22 -22 -22 -22 -23 -23 -23 -23
Height
666 665 665 665 666 668 670 670 671 672 674 677 678 680 682 685 687 690 692 694 696 699 702 704 706 707 708 709 711 713 716 718 720 721 723 724 724 725 726 726 726 724 721 722 723 723 722 722 722 721 720 719 717 716 715 713 712 710 708 706 702 699 698
662 662 661 661 661 663 665 667 668 669 670 672 674 676 678 681 683 685 688 690 692 695 698 701 703 704 705 706 707 709 711 713 716 718 719 720 721 721 722 723 723 722 720 719 720 720 719 719 719 717 717 716 714 711 710 708 706 705 703 701 698 695 694
658 658 658 657 657 658 660 663 665 666 666 668 670 672 674 677 679 680 682 685 687 690 694 697 700 701 702 703 704 705 707 709 711 713 715 716 717 718 719 720 720 720 719 716 716 717 716 715 715 714 713 712 710 708 706 704 702 701 699 696 694 692 691
654 654 654 654 653 653 655 658 660 662 663 664 666 667 669 672 674 676 677 680 682 686 689 693 696 698 699 700 700 701 702 705 706 709 710 711 713 714 715 717 717 717 716 715 713 713 713 712 711 710 709 708 706 704 702 700 698 697 694 691 690 688 687
650 650 650 649 649 649 649 652 655 657 659 661 663 664 665 667 669 671 673 675 678 681 684 688 692 695 697 697 698 698 699 700 702 704 706 707 709 710 712 713 714 714 714 712 710 709 709 709 707 706 705 704 702 699 697 696 694 692 690 687 686 685 684
646 646 645 644 644 645 644 646 650 653 655 657 659 661 662 664 665 667 669 672 674 676 679 683 687 691 693 695 695 694 694 696 697 700 702 703 705 706 708 710 710 711 711 709 708 706 705 705 704 702 700 700 700 696 693 691 689 688 686 684 682 680 678
641 640 640 639 640 640 640 642 644 648 651 654 656 657 658 660 662 664 666 668 670 672 674 678 682 686 689 691 691 691 691 692 693 695 697 699 701 703 705 706 706 707 707 706 704 703 701 701 701 700 696 695 696 694 691 689 686 683 682 681 680 677 673
636 636 636 635 636 636 637 637 639 643 647 650 653 654 655 657 659 661 663 665 667 669 670 673 677 681 684 687 688 688 689 689 690 692 694 696 698 700 702 703 703 704 703 702 701 699 698 697 697 696 694 692 692 690 688 688 685 680 677 677 675 673 670
632 632 632 632 632 633 634 634 635 638 642 646 649 651 652 654 656 658 660 662 665 666 667 669 672 676 679 683 685 686 687 687 687 689 690 692 695 697 699 700 700 700 699 699 697 696 695 694 693 692 691 689 688 687 684 684 683 678 674 672 668 667 667
628 628 627 627 628 630 631 631 632 634 637 641 644 646 648 651 652 655 657 659 662 663 664 666 668 672 676 679 682 683 684 685 685 686 687 689 692 694 695 696 696 696 695 695 694 693 692 690 688 688 688 686 685 685 682 681 680 675 671 668 662 657 659
625 623 623 623 625 626 628 629 630 631 634 637 640 642 644 647 649 652 654 657 659 660 661 663 664 668 672 676 679 680 681 683 683 684 685 687 689 690 691 692 692 692 691 691 690 689 688 687 684 684 685 684 682 682 680 679 678 673 669 666 660 653 651
621 619 619 620 621 622 624 626 627 629 631 634 637 638 640 643 646 649 651 654 655 657 658 660 661 664 668 673 675 677 678 680 681 682 683 684 686 687 688 689 688 688 688 688 687 686 685 684 682 682 682 682 680 679 677 675 673 670 666 663 660 654 648
617 616 616 617 617 618 620 622 625 627 629 631 634 635 637 639 642 645 648 650 652 654 655 656 658 662 666 669 672 673 675 676 678 679 680 681 683 684 685 686 685 685 685 686 685 683 682 682 681 680 679 679 678 675 673 670 667 666 664 660 657 653 646
614 612 612 613 614 615 616 618 621 624 627 628 630 632 634 635 638 642 645 647 650 651 652 653 655 659 663 666 668 670 671 673 675 676 677 678 680 681 682 682 682 683 683 683 683 681 679 679 679 678 675 675 675 673 670 667 664 662 660 656 653 650 645
610 609 609 610 611 612 613 614 617 621 623 625 627 629 631 632 635 638 642 645 647 648 648 649 652 656 660 663 664 666 668 670 672 673 674 676 677 678 680 680 680 680 680 680 680 678 677 676 675 674 673 672 672 670 668 666 663 660 657 653 648 644 641
607 606 606 606 608 609 610 612 614 617 619 621 623 626 627 628 631 635 639 643 645 646 646 647 650 655 658 660 661 663 665 667 669 671 672 673 675 676 677 677 677 678 677 677 677 676 674 673 672 671 671 670 669 668 665 663 659 657 655 651 645 638 635
603 603 603 604 605 606 607 609 611 613 615 617 620 622 624 625 628 632 636 639 642 644 644 646 649 653 655 657 658 660 663 665 667 668 670 671 673 674 674 674 674 675 675 675 675 674 672 671 670 669 667 667 666 664 662 660 656 653 653 651 644 635 630
601 600 600 601 602 603 604 605 607 609 612 614 616 619 622 623 625 629 633 636 639 641 643 645 648 651 653 654 655 657 660 663 664 666 667 669 671 672 672 672 672 672 672 672 671 670 669 667 666 665 663 662 661 659 659 657 653 651 651 649 644 636 629
598 597 597 598 598 600 601 602 604 606 608 611 613 616 619 620 622 626 630 634 637 639 641 644 647 650 650 651 653 656 658 661 662 664 665 667 669 669 669 669 670 669 669 669 668 667 665 663 662 660 659 657 656 655 654 653 650 649 649 646 642 638 632
594 594 594 594 595 596 598 599 601 603 605 608 611 613 616 618 620 623 627 631 634 637 639 642 645 647 648 649 652 654 657 659 660 662 664 666 667 667 667 667 667 667 666 665 664 663 661 659 657 656 654 653 651 651 650 649 647 646 645 643 639 636 634
591 591 591 592 592 594 595 596 598 600 603 606 608 611 613 615 618 621 625 629 632 634 636 639 642 644 646 648 650 653 655 657 659 661 662 663 665 665 665 665 665 665 664 663 661 659 657 655 653 652 651 649 647 647 646 645 644 642 641 640 636 633 630
589 589 589 590 591 592 593 595 597 599 601 603 606 609 611 613 616 619 623 626 629 631 633 636 639 641 644 646 649 651 654 656 658 660 661 662 664 664 663 663 663 663 662 660 658 656 653 652 651 648 646 645 644 643 642 641 640 638 636 635 633 630 626
587 587 588 589 590 591 592 594 595 597 599 601 604 607 609 611 614 617 620 623 626 629 631 633 636 639 642 645 648 650 652 655 657 658 659 661 662 661 661 662 661 661 659 658 655 653 651 650 648 645 643 642 641 641 640 638 636 634 632 630 627 625 621
586 586 587 588 589 590 591 592 594 596 598 600 603 605 607 609 612 614 617 620 623 626 629 631 635 638 641 644 647 649 652 654 656 657 659 659 660 659 660 660 660 659 657 655 653 651 649 648 647 645 643 642 640 639 637 635 633 630 628 626 623 619 616
584 584 585 586 587 588 589 591 593 595 597 599 602 604 606 608 610 612 614 618 621 624 627 630 633 637 640 643 646 648 651 653 655 656 657 657 658 658 659 659 658 657 655 652 650 649 648 647 646 645 644 642 640 638 635 632 630 627 624 622 619 615 612
582 583 584 584 585 586 588 590 592 593 596 598 600 602 604 606 609 611 613 616 619 622 626 629 632 636 639 642 644 647 649 652 653 655 655 656 657 657 658 657 656 654 652 650 649 649 648 647 646 645 644 642 639 637 634 630 627 623 621 619 616 612 608
581 581 582 583 584 585 586 588 590 592 594 596 598 600 602 605 607 610 612 615 618 621 625 628 632 635 638 640 643 646 649 650 652 653 654 655 656 656 656 655 654 652 650 649 649 648 648 647 646 644 643 641 639 636 633 630 627 623 620 617 615 612 608
579 580 580 581 583 584 586 587 589 590 592 593 596 599 601 603 606 608 610 613 617 621 624 627 631 633 636 639 642 645 648 649 651 653 654 654 655 655 655 654 652 651 650 649 649 648 648 647 646 644 642 640 638 635 632 629 626 624 621 618 615 613 609
578 578 579 580 581 583 585 587 587 588 589 591 594 597 600 602 604 606 608 611 615 619 623 626 629 632 635 639 642 644 647 649 650 652 653 654 654 654 654 653 652 650 649 649 649 648 648 647 645 644 642 640 637 635 632 629 626 624 621 618 616 614 611
576 577 577 578 579 580 582 584 584 586 588 591 594 596 599 601 603 605 607 610 614 617 621 625 629 632 634 637 640 643 645 648 649 651 652 653 653 653 653 652 651 650 649 649 649 648 647 647 645 644 643 640 637 634 631 629 627 624 622 619 617 615 612
575 576 576 577 578 579 580 582 583 585 588 590 593 595 598 601 603 605 607 609 612 616 620 624 628 632 634 636 639 642 644 646 648 649 651 652 652 653 652 651 650 650 650 649 649 648 647 646 645 645 643 641 638 635 631 629 626 624 622 620 618 615 612
575 575 574 575 576 577 579 581 583 585 587 589 592 594 597 600 602 605 607 609 611 616 620 624 627 630 633 635 638 641 643 645 647 648 650 651 651 651 651 651 650 650 650 649 649 648 647 646 646 645 644 641 639 636 632 629 626 624 622 620 618 616 613
574 574 574 574 575 576 578 579 581 584 586 588 591 593 596 599 602 605 607 609 612 615 620 624 626 628 631 634 637 639 642 644 646 647 649 650 650 650 650 650 650 650 649 649 649 648 648 647 646 645 644 641 639 636 634 631 628 626 623 621 618 616 613
574 574 573 573 574 575 577 579 581 583 585 587 590 593 596 599 602 605 607 610 612 615 619 622 625 627 630 633 636 638 640 643 645 647 648 649 649 649 649 649 650 650 649 649 649 649 648 647 646 645 643 641 639 636 634 632 630 627 625 623 621 618 614
574 574 573 573 573 575 577 579 580 583 585 587 590 593 595 599 602 605 607 610 612 615 617 621 623 626 629 632 634 637 639 642 644 645 646 647 648 648 648 649 650 650 650 650 650 649 648 647 646 645 644 642 640 637 635 633 631 629 627 625 623 620 617
575 574 573 573 573 574 577 579 580 582 585 587 590 592 595 597 600 603 606 610 613 615 617 620 623 625 628 631 633 636 638 640 642 644 645 647 647 647 648 649 649 649 650 650 650 649 648 647 647 646 644 643 641 639 637 635 633 631 629 627 625 622 620
Wind_Speed
25 26 28 30 32 33 34 35 35 35 36 38 38 39 40 38 36 33 29 28 31 32 31 31 31 30 29 26 25 25 25 25 25 25 24 23 22 22 21 19 14 9 9 12 17 20 22 22 22 23 24 26 29 33 34 33 33 33 32 32 33 33 31
27 26 28 30 32 33 34 35 35 36 37 38 39 39 39 37 34 32 30 28 30 31 31 30 30 30 29 27 26 26 26 26 26 26 25 24 24 23 22 21 19 13 9 10 15 20 21 20 21 23 25 27 30 33 33 33 33 33 32 32 31 30 29
28 27 28 30 31 33 34 35 35 36 37 38 39 40 39 37 34 32 31 31 31 31 31 29 29 29 29 27 27 27 27 27 27 27 26 26 25 25 24 23 22 18 12 11 15 19 21 21 21 24 27 29 30 31 31 31 31 32 32 31 29 28 29
28 28 28 30 31 32 34 35 35 36 37 37 37 39 40 38 34 32 32 33 33 32 31 29 29 29 29 28 27 28 27 27 27 28 27 26 26 26 25 24 23 21 18 15 15 18 21 22 24 27 29 29 28 28 29 28 30 31 31 30 28 27 28
28 28 29 31 32 33 34 35 36 36 36 36 36 37 38 37 35 34 33 34 34 32 31 30 30 30 28 27 28 27 27 27 28 28 27 27 26 26 25 23 21 21 21 19 18 19 21 23 25 27 27 27 25 26 27 27 28 28 28 28 26 25 28
28 29 31 32 33 33 33 34 36 37 35 36 36 36 36 34 34 33 33 33 33 33 31 31 31 30 28 28 29 28 28 28 28 29 28 27 27 26 24 22 21 21 21 21 23 22 20 21 21 21 24 25 23 23 25 25 26 25 23 23 23 28 34
29 30 31 33 33 33 32 33 35 36 34 34 36 35 34 33 32 31 32 32 33 33 32 31 31 30 28 29 31 31 30 29 29 29 28 28 27 25 23 22 21 21 21 21 21 20 19 18 17 19 24 25 22 22 22 22 23 23 21 21 25 34 40
31 30 31 32 32 32 31 32 34 34 33 33 34 34 33 32 31 30 30 31 32 32 32 31 31 31 30 31 31 31 30 29 29 28 27 27 27 25 23 21 21 21 21 20 18 17 17 17 16 19 23 23 20 19 17 18 22 23 24 28 33 36 36
30 29 29 30 30 30 29 30 33 33 33 34 33 33 32 31 31 30 29 30 30 30 30 30 30 30 31 31 30 29 29 28 28 27 26 26 25 24 22 21 21 20 18 16 14 15 16 15 16 20 23 21 19 18 20 23 24 24 27 33 36 34 30
29 28 29 29 28 28 28 29 31 33 35 35 35 34 32 30 31 30 29 29 28 28 29 30 30 30 30 30 29 27 26 25 25 25 25 25 24 24 23 22 21 20 18 15 11 13 14 12 15 21 21 19 20 21 22 21 20 23 30 32 30 28 24
27 27 28 28 27 27 27 28 29 32 34 34 32 33 32 30 30 31 29 28 27 28 29 29 28 28 28 28 27 25 23 22 22 22 22 22 22 23 23 23 22 20 19 17 12 11 12 10 12 18 19 19 21 20 18 21 24 27 28 23 17 16 17
26 27 27 26 26 26 27 28 29 30 31 30 28 30 32 31 30 30 29 28 28 28 28 28 27 27 27 28 27 25 23 22 20 20 20 20 20 21 22 23 21 17 15 15 12 10 11 12 14 17 19 20 22 21 22 28 28 24 22 20 16 15 19
26 26 25 25 25 26 26 28 29 28 28 28 28 28 30 30 30 30 29 28 28 27 27 27 26 26 27 28 26 24 24 24 22 20 19 18 19 20 20 18 17 16 15 17 17 15 16 17 18 19 21 22 22 23 27 28 22 17 19 20 19 21 29
25 24 24 25 25 25 25 27 28 26 26 28 28 28 29 30 30 29 28 28 29 27 26 26 26 26 27 28 26 24 24 25 24 22 21 19 19 20 20 19 19 20 20 20 21 21 22 24 24 25 26 26 24 24 26 25 21 20 23 25 28 32 39
23 23 23 24 25 24 24 26 26 25 26 27 26 27 28 29 29 27 26 26 27 27 26 26 26 27 28 27 25 24 24 23 22 21 20 18 19 20 20 21 22 22 21 21 21 23 25 25 25 25 25 24 23 24 25 26 26 29 32 35 35 35 36
21 21 22 23 24 23 23 24 24 24 25 25 24 25 26 26 27 27 25 25 25 25 25 26 27 28 27 25 23 22 22 21 19 19 18 18 19 19 19 20 20 18 18 19 19 20 21 22 22 22 22 23 25 27 29 30 31 31 31 28 24 23 26
21 20 20 21 22 23 23 23 23 22 23 23 23 24 24 23 26 26 25 25 26 25 25 27 28 27 26 24 22 20 19 18 17 18 19 19 18 17 18 20 19 16 15 17 17 18 20 22 24 25 26 28 28 28 27 25 25 25 22 16 12 12 16
20 19 19 19 21 23 23 23 22 21 22 21 22 24 23 21 25 27 24 23 25 25 25 27 27 27 26 24 21 19 19 17 17 17 17 16 15 15 17 18 17 16 16 18 19 21 22 24 27 29 29 29 29 26 22 19 21 23 19 14 11 10 14
19 17 18 19 21 22 22 21 21 20 21 21 21 24 22 20 24 26 24 22 23 22 24 25 25 25 25 23 19 18 18 16 15 16 15 15 15 16 17 17 16 16 17 18 20 22 24 26 27 27 27 26 25 22 19 17 20 21 18 16 15 14 13
17 16 17 18 19 20 19 20 20 20 21 20 20 22 22 21 22 24 23 23 22 22 22 23 23 23 22 21 19 17 17 15 14 15 15 16 16 15 16 16 14 13 14 16 19 22 25 26 26 26 24 23 21 18 16 15 16 17 18 19 20 18 13
15 15 15 16 17 18 19 19 20 20 20 19 19 21 22 22 22 23 23 23 23 23 22 22 23 23 21 19 18 17 16 14 13 13 13 14 14 14 13 12 10 11 13 17 20 22 23 24 24 23 22 20 20 18 16 15 15 16 19 20 22 22 18
13 13 13 14 15 17 18 19 20 20 19 18 19 21 22 23 24 24 23 22 22 22 23 23 24 24 21 19 17 16 14 13 11 10 12 12 10 8 9 10 11 13 16 18 18 19 20 21 22 23 23 22 22 20 19 17 16 16 18 20 22 24 23
11 11 11 11 13 16 17 18 19 19 18 18 19 20 22 23 24 25 25 24 22 22 24 24 24 23 21 18 16 14 13 11 10 10 10 8 8 9 11 12 14 15 15 15 14 16 18 19 21 23 24 25 24 23 20 18 17 16 17 18 20 23 26
10 10 10 10 11 14 15 17 18 18 17 17 18 19 20 22 23 26 27 26 24 24 25 25 23 22 21 18 15 13 12 10 11 11 9 8 10 12 13 12 12 12 11 11 12 15 17 19 20 22 24 25 25 23 21 19 18 17 16 16 19 22 25
8 9 9 9 10 12 14 15 16 17 16 16 16 17 18 20 22 26 28 27 26 25 25 24 22 20 19 17 15 13 13 12 11 10 9 10 12 11 10 9 9 8 7 9 12 14 16 18 20 21 21 22 22 21 20 21 20 19 18 18 20 22 22
7 7 7 8 9 11 12 14 15 17 17 16 15 15 16 18 19 24 28 29 27 26 24 22 21 20 19 18 16 16 16 15 12 10 9 10 8 7 6 6 6 5 6 9 11 13 16 18 19 19 19 19 20 20 21 23 23 22 22 21 22 23 24
7 6 6 7 8 10 12 13 15 16 17 17 16 15 16 17 18 21 27 28 26 25 23 21 21 21 21 20 18 17 17 15 12 11 10 7 5 4 4 3 3 5 7 10 11 12 15 16 17 18 19 20 20 21 22 22 22 22 23 23 22 21 21
7 8 8 8 9 10 10 11 14 16 18 19 19 18 18 18 17 19 26 28 25 24 24 23 24 25 23 22 20 17 16 14 13 11 8 6 4 4 2 0 2 5 7 9 10 11 13 15 16 18 20 21 21 21 22 23 22 21 21 22 20 16 16
9 10 11 11 12 11 9 9 14 19 21 21 21 20 20 21 18 19 26 30 28 27 28 28 27 26 23 21 19 17 15 14 13 11 8 7 5 4 2 2 2 4 7 8 10 11 13 15 17 19 20 21 21 21 23 24 23 22 21 20 17 13 14
11 12 12 11 13 14 12 12 15 18 19 19 19 20 21 20 19 20 27 32 32 32 31 27 24 23 22 21 19 17 17 16 14 13 11 9 7 5 4 4 5 7 8 8 10 11 12 14 16 18 19 20 21 23 25 24 23 22 20 18 16 13 14
9 10 11 11 12 13 14 14 13 13 17 18 18 20 20 19 18 23 30 35 34 31 28 24 21 19 20 20 19 18 19 18 16 14 12 11 9 7 5 5 7 8 8 8 9 11 12 14 15 15 16 17 19 21 24 25 25 24 22 19 17 13 13
6 6 7 10 12 11 11 12 12 12 15 18 18 19 20 20 20 25 32 35 33 28 23 22 21 19 19 20 19 18 19 18 16 15 14 13 11 9 7 7 8 8 8 9 10 11 12 14 14 14 14 15 18 19 22 25 26 26 24 21 18 15 15
5 5 4 5 10 12 10 11 13 13 15 17 18 19 20 21 23 27 31 32 29 24 20 20 21 20 20 21 19 19 19 18 16 16 14 13 11 10 9 9 8 7 7 8 9 10 11 13 13 14 14 15 17 18 19 22 24 24 23 21 19 18 18
7 5 3 2 7 13 12 11 13 14 15 16 18 20 21 22 24 28 30 29 26 24 22 21 20 19 21 21 20 20 20 19 17 17 15 13 12 10 10 10 8 7 7 8 8 9 11 12 13 14 15 16 17 18 19 21 22 22 22 21 19 18 19
10 7 3 2 5 12 15 14 13 14 16 17 19 21 23 23 23 24 24 24 24 24 24 23 22 21 22 22 21 21 21 20 19 18 16 14 13 12 11 10 8 7 7 7 8 9 11 12 13 13 14 14 16 19 19 20 21 21 20 20 19 18 19
10 9 3 2 5 11 16 16 14 14 16 18 20 22 24 22 19 19 19 19 20 22 23 23 23 23 23 22 22 22 21 20 19 18 16 14 13 12 11 10 8 7 7 6 7 8 10 11 12 14 14 14 15 17 18 18 20 20 19 20 20 19 18
Wind_Direction
269 258 249 242 237 234 231 227 224 222 217 213 212 211 211 210 209 210 210 211 212 214 215 216 217 218 217 214 211 214 216 217 218 218 219 223 224 222 224 230 237 251 268 266 269 279 283 283 283 282 282 286 294 299 301 300 298 297 295 293 294 296 294
270 260 250 242 237 233 231 227 224 219 214 211 211 209 209 209 208 209 210 209 210 211 213 214 216 218 216 213 212 213 214 215 216 216 218 221 221 221 227 231 233 243 261 269 274 281 284 283 282 281 282 289 295 298 299 299 298 298 296 295 294 294 292
271 260 250 243 237 232 231 227 222 218 214 212 211 208 209 210 209 209 209 208 208 209 211 212 214 218 216 211 211 212 213 215 215 216 218 220 221 225 230 231 233 241 253 270 277 279 281 283 283 283 285 291 295 296 296 295 295 298 297 296 294 290 287
272 260 250 243 237 233 231 227 223 218 215 214 211 210 211 211 210 211 210 208 207 207 209 210 213 218 217 211 209 211 213 213 214 216 218 221 224 227 231 233 235 242 252 266 275 275 277 280 282 284 288 294 296 295 294 293 294 296 295 294 291 286 286
273 258 248 242 237 234 232 228 223 219 216 214 212 212 212 211 211 212 211 210 208 207 209 210 214 219 217 211 209 210 211 212 214 216 218 221 225 227 230 234 238 246 254 262 271 275 276 277 280 283 288 295 297 295 295 294 294 294 293 291 287 284 289
272 259 248 242 239 236 232 227 223 220 218 215 214 213 212 211 211 212 211 209 209 209 210 212 216 220 218 213 211 211 212 212 213 215 217 221 225 227 230 234 240 249 256 261 266 271 274 277 277 279 288 296 295 293 295 296 296 294 290 287 288 291 296
272 261 250 243 239 236 231 225 222 220 218 216 215 214 212 211 211 211 210 210 210 210 210 212 216 219 218 217 217 217 215 213 213 215 219 223 226 228 230 234 241 250 256 260 264 267 270 274 274 277 289 296 294 289 290 294 298 299 293 288 292 297 299
273 264 252 244 239 235 230 224 220 218 217 216 215 214 212 211 210 209 209 210 211 211 210 212 215 219 221 222 223 223 220 218 217 216 219 225 228 229 231 236 243 250 255 256 258 263 267 270 273 280 290 294 293 291 289 293 297 297 296 296 297 299 298
274 264 252 244 240 235 229 223 218 216 215 214 214 213 212 211 210 209 208 208 210 210 210 211 215 220 223 225 227 229 228 227 225 222 223 225 227 229 232 238 243 248 249 248 251 259 263 266 273 284 291 290 290 293 294 298 297 293 297 301 299 297 296
272 260 249 242 238 233 227 222 219 217 216 214 213 212 211 211 210 209 207 207 208 208 209 211 214 219 223 226 229 230 229 228 227 227 230 231 233 234 234 238 242 243 244 244 247 254 257 263 274 282 287 287 290 294 294 297 299 297 301 304 300 297 295
269 258 246 238 234 231 227 223 220 218 217 214 212 212 211 210 210 209 208 208 206 206 208 208 211 216 220 223 226 225 223 222 221 224 227 231 236 237 237 239 239 239 241 243 243 247 251 256 271 281 287 289 293 295 291 294 297 295 295 297 297 299 299
269 257 244 235 231 228 226 225 222 219 217 213 210 211 211 210 210 209 208 209 207 207 208 206 208 213 217 221 224 223 221 220 221 224 225 229 234 238 243 244 242 243 251 256 260 262 263 269 281 288 289 291 294 294 292 293 291 284 281 285 289 292 292
271 257 243 232 227 225 224 225 223 219 216 214 212 211 210 210 210 208 208 209 208 207 206 204 205 209 215 221 223 222 223 222 222 224 227 233 239 242 246 249 253 261 269 273 277 281 279 280 285 288 288 290 292 290 289 289 284 278 281 285 287 288 289
270 256 243 232 227 224 222 223 223 219 216 216 216 213 210 208 208 208 209 210 209 206 203 201 203 207 214 220 219 218 222 225 225 226 229 235 240 241 244 250 259 267 270 271 275 278 279 280 281 281 283 287 288 285 285 287 289 293 294 289 288 288 287
268 256 244 233 227 224 221 222 221 217 216 217 216 217 213 206 203 205 208 210 209 206 203 202 204 209 214 218 219 217 220 224 226 227 229 233 237 243 250 256 263 269 272 274 274 272 275 279 280 280 281 287 294 294 294 295 296 297 296 293 291 288 286
271 257 245 233 226 222 220 221 219 214 216 217 216 219 218 205 198 202 206 208 209 206 204 204 207 211 215 218 219 218 217 219 223 224 226 232 239 246 255 262 268 272 273 275 276 275 279 281 283 286 289 295 300 300 299 299 296 293 293 292 291 287 287
277 263 248 233 225 220 217 219 217 212 214 216 215 219 219 202 193 198 202 205 208 206 205 207 210 213 216 217 219 218 211 209 215 219 222 229 237 248 258 266 273 276 272 272 273 275 278 280 283 288 292 295 296 296 298 299 294 291 293 293 288 286 289
280 266 249 234 225 221 217 218 218 211 211 215 215 217 216 198 189 195 199 200 204 205 205 209 213 216 216 216 217 215 207 205 211 214 216 226 237 247 255 263 272 275 270 269 270 273 277 282 286 290 292 295 296 295 296 290 282 286 291 286 278 282 292
277 264 249 236 228 223 217 217 218 213 210 212 214 215 214 198 186 190 194 194 195 198 202 206 209 212 216 217 215 209 204 205 211 214 219 230 236 243 253 263 271 272 271 273 278 282 288 292 296 300 300 302 302 299 294 282 278 284 284 275 274 279 291
271 260 248 237 228 222 216 214 216 215 210 210 213 214 211 200 187 184 187 188 187 189 194 199 202 203 209 215 212 207 204 207 213 216 220 226 233 246 260 266 267 264 269 281 288 292 298 302 308 311 311 311 311 309 305 294 289 289 280 272 273 275 276
265 254 241 234 226 219 216 214 214 215 210 207 214 215 209 201 192 184 181 180 183 187 187 192 197 198 199 203 203 201 202 206 210 212 218 228 241 253 257 255 257 263 275 288 294 299 307 314 318 319 320 323 325 326 324 312 303 296 285 275 270 271 272
259 244 231 225 221 216 216 213 213 216 213 207 212 217 211 202 195 189 182 176 178 185 187 192 198 197 194 195 196 198 199 198 201 212 226 234 236 232 232 243 264 278 287 294 300 310 318 324 329 329 332 336 335 335 332 321 310 303 295 285 274 270 271
244 230 218 211 211 214 216 213 212 215 214 210 211 215 214 205 194 189 187 183 182 186 190 196 201 199 194 193 194 195 194 190 195 208 216 210 201 213 234 256 274 284 293 300 312 325 329 333 339 338 336 338 337 336 334 328 320 316 310 303 293 285 281
226 209 201 198 202 208 211 210 212 213 212 212 213 212 213 207 194 188 190 191 192 194 196 199 202 200 194 191 190 190 186 185 190 193 190 191 212 234 250 267 280 287 298 313 332 340 337 339 344 341 337 338 338 338 338 334 330 329 327 322 311 301 296
220 201 197 193 194 201 205 206 210 211 209 211 213 212 213 211 198 189 189 193 197 200 203 204 203 196 187 181 178 176 174 174 173 175 189 213 230 247 262 273 281 293 318 339 349 349 343 343 346 343 341 341 341 344 346 343 340 340 343 340 326 315 313
231 208 200 196 194 198 200 200 204 210 210 209 209 211 213 214 206 192 187 193 200 202 203 203 196 184 174 169 168 169 170 169 165 170 195 219 233 252 267 273 287 324 355 360 359 354 348 349 348 346 348 350 350 354 356 352 348 345 348 347 337 328 328
232 211 201 203 200 195 193 194 197 203 208 206 205 207 209 213 213 197 184 187 193 191 189 186 175 165 160 159 161 167 171 173 178 187 200 214 233 249 256 278 328 6 17 12 5 358 354 354 354 353 357 358 357 360 2 0 356 350 348 348 342 332 328
227 216 212 206 197 188 184 185 191 200 207 205 200 201 202 206 212 197 179 176 177 174 168 160 152 149 152 156 160 165 171 178 185 192 199 205 213 225 227 6 16 23 28 20 10 5 2 1 2 3 2 360 358 3 6 6 3 356 349 348 345 336 328
247 238 231 216 202 191 174 176 196 209 214 208 200 197 196 199 205 191 173 171 170 160 151 147 146 147 151 156 160 163 168 175 180 180 185 193 195 196 178 127 73 49 41 28 19 16 10 7 8 9 4 0 0 5 10 10 7 3 355 350 345 337 333
265 259 248 231 218 210 204 210 219 219 213 204 198 195 194 197 199 183 168 167 166 157 148 146 147 149 155 159 162 164 166 171 175 175 178 184 180 173 163 129 86 63 51 38 28 25 19 15 14 11 4 1 2 5 10 12 10 7 2 354 344 337 340
278 265 251 238 231 225 219 223 226 214 201 196 193 192 190 189 185 174 166 165 163 154 149 150 149 151 160 164 167 171 172 174 176 176 177 177 172 164 151 121 90 69 54 43 38 33 28 25 21 13 5 4 5 6 10 12 12 11 8 360 348 338 338
315 296 259 233 225 222 216 209 204 197 194 192 190 188 187 183 174 165 163 165 162 153 150 155 155 156 164 168 170 176 178 178 180 180 178 176 168 156 141 114 92 75 58 48 44 39 33 31 26 17 11 12 13 14 13 12 11 9 6 0 354 347 342
357 341 310 235 212 211 209 199 193 192 191 188 186 185 183 179 171 162 161 164 160 151 151 159 160 161 169 173 176 180 180 180 183 183 181 177 167 152 135 113 93 78 66 56 49 44 41 36 28 21 19 20 21 22 21 17 13 9 5 2 357 351 347
1 351 328 275 199 195 193 185 184 188 187 183 183 182 178 174 168 162 163 167 163 154 155 161 162 164 172 176 178 180 180 180 182 182 178 173 164 147 129 116 104 91 76 63 54 49 46 41 34 26 23 22 24 27 27 22 16 11 7 2 356 349 346
349 356 329 271 192 183 182 178 178 184 184 181 180 179 175 170 164 159 159 164 165 161 161 165 166 168 174 177 179 180 180 180 181 180 176 169 159 144 130 124 117 103 87 70 59 54 48 43 38 33 28 25 26 28 28 23 18 14 9 2 356 351 347
344 357 351 239 188 175 174 173 174 179 181 179 179 178 173 168 164 159 153 154 160 163 165 168 171 172 175 177 179 180 180 181 180 177 172 167 157 143 135 132 122 107 95 79 64 57 52 46 41 36 32 31 30 30 31 27 21 18 15 8 1 357 354